Showing default

QIANFAN-71, 62801

Orbit data source: Space-Track

QIANFAN-71, 62801 is a Chinese payload satellite in LEO that was launched on Thu, 23 Jan 2025 UTC via a CHANG ZHENG 6A launch vehicle from the Taiyaun Space Center, China (TSC). Payload-class satellites include a variety of spacecraft equipped with specific instruments for various scientific and technological missions. These include communications satellites like Starlink; space stations such as the ISS; scientific satellites like the Hubble; Earth observation satellites from companies like Planet Labs, Umbra, and HawkEye 360; GPS; miniature CubeSats for education and research; and military/defense satellites.

Loading next visibility...
Identifier
62801, 2025-016S
Orbit
LEO
Country
Flag of CNCN / PRC
Related business
Manufacturer
SECM
Mission
Operational Commercial Communications
Bus & Motor
QIANFAN, Unknown motor
Mass
267 kg wet, ~267 kg dry
Launch date (UTC)
2025-01-23 (10 months ago)
Launch vehicle
CHANG ZHENG 6A
Launch site
Taiyaun Space Center, China (TSC)
Object type
Payload
Rocket body
Debris
Shape & HBR
Box + 1 Pan, 1.3 m
Radar Cross Section
13.200 m², Large (>1 m²)

Expand to show TLE details & history
Last TLE update: 10 hours ago

TLE from 10 hours ago
0 QIANFAN-71
1 62801U 25016S   25341.89578576  .00000177  00000-0  25541-3 0  9996
2 62801  88.9766 103.5871 0015459   8.7387 351.4030 13.50982660 46584
Epoch: 2025-12-07T21:29Z
TLE epoch observation values (Epoch: 2025-12-07T21:29:55.889Z)
Latitude
-0.00007°
Longitude
64.20162°
Altitude
1,060.214 km
Speed
7.327 km/s
True Right ascension
06h 54m 20s
True Declination
0° 00' 00"
Sunlit
Object was in full shadow at epoch
Visualization orbit readout
Latitude
Unknown
Longitude
Unknown
Altitude
Unknown
Speed
Unknown
Apparent Right ascension
Unknown
Apparent Declination
Unknown
Sunlit
N/A
Visualization observer readout
Local Sidereal Time
05:19:27
Azimuth
Unknown
Elevation
Unknown
Doppler factor
Unknown
Orbital elements
Apogee altitude
1,077.204 km
Perigee altitude
1,054.189 km
Semi-major axis
7,443.833 km
Eccentricity
0.00155
Inclination
88.9766°
RAAN
103.5871°
Arg. of periapsis
8.7387°
True anomaly
351.37647°
Mean anomaly
351.403°
Eccentric anomaly
351.38974°
Mean motion
3.37947 °/min
Orbital period
106.53 mins
BSTAR
0.00025541
Loading maneuver chart data...
Computing Atmospheric mass density...
Loading historical data...
Loading historical data...
Loading historical data...
Loading historical data...
Loading historical data...
Loading historical data...
Loading historical data...

Documentation

Showing up to 5 results
|